www.pogodaiklimat.ru

Погода и климат >> Архив погоды >> Ирак >> Hella


ПОГОДА в Hella

  • Прогноз погоды в Hella
  • Монитор погоды в Hella
  • Климат города

АРХИВ ПОГОДЫ в Hella

Время (UTC), дата Ветер
(напр.,м/с)
 
Видим.   Явления Облачность Т
(С)
Тd
(С)
f
(%)
Тe
(С)
Тes
(С)
Комфортность P
(гПа)
Po
(гПа)
Тmin
(С)
Tmax
(С)
R
(мм)
R24
(мм)
S
(см)
15 14.11 штиль 0 10 км 10/0
[]
+19.6 +13.7 69 +21 +21 комфорт 1010.9 1011.0
18 14.11 Ю 3 10 км 8/8 1050 м
[Sc]
+17.8 +13.5 76 +18 +18 1011.9 1012.0 +23.3 0.3
21 14.11 н/о +13.1 1012.2
00 15.11 штиль 0 10 км 10/0
[As op]
+15.3 +12.9 86 +15 +15 1011.3 1011.0
09 15.11 В 2 10 км 10/0
[As op]
+17.6 +15.5 87 +18 +20 1013.0 1013.0
12 15.11 В 3 10 км 10/4 1140 м
[Sc As op]
+18.6 +16.2 86 +20 +20 1012.2 1012.0
15 15.11 штиль 0 10 км 10/4 1050 м
[Sc As op]
+18.0 +16.3 90 +18 +18 1012.2 1012.0
18 15.11 штиль 0 10 км 9/9 1050 м
[Cu Sc]
+17.8 +16.2 90 +18 +18 1011.7 1012.0 +18.8
21 15.11 штиль 0 10 км 9/9 1050 м
[Cu Sc]
+18.4 +16.8 90 +19 +19 1012.0 1012.0
00 16.11 штиль 0 10 км слабый дождь 10/4 1050 м
[Sc As op]
+18.0 +16.2 89 +18 +18 1012.0 1012.0
03 16.11 Ю 5 8000 м {гроза, ливн. осадки} 10/10 900 м
[Cu Sc]
+17.0 +15.4 90 +16 +16 1011.6 1012.0
06 16.11 штиль 0 10 км {гроза, ливн. осадки} 10/5 1050 м
[Sc As op]
+18.0 +16.3 90 +18 +18 1015.7 1016.0 +16.2 5
09 16.11 штиль 0 10 км 5/4 1050 м
[Sc diur, vesp Ac und]
+20.0 +14.9 72 +22 +28 комфорт 1017.2 1017.0
12 16.11 З 3 10 км 8/8 1050 м
[Sc]
+21.8 +16.0 70 +26 +26 душно 1017.1 1017.0
15 16.11 штиль 0 10 км ясно +18.8 +16.3 85 +20 +20 1018.7 1019.0
18 16.11 штиль 0 10 км ясно +16.6 +14.2 86 +16 +16 1020.6 1021.0 +22.4
21 16.11 штиль 0 10 км ясно +14.6 +14.0 96 +14 +14 1021.2 1021.0
00 17.11 штиль 0 10 км ясно +13.4 +11.1 86 +13 +13 1021.2 1021.0
03 17.11 штиль 0 800 м туман ясно +12.4 +12.0 97 +12 +12 1022.4 1022.0
06 17.11 штиль 0 6000 м дымка {туман} ясно +15.0 +14.2 95 +15 +19 1023.0 1023.0 +12.0
09 17.11 З 3 10 км дымка ясно +22.4 +15.0 63
12 17.11 СЗ 4 10 км ясно +23.4 +14.2 56 +27 +29 душно 1021.6 1022.0
15 17.11 штиль 0 10 км ясно +19.0 +14.1 73 +20 +20 1021.5 1022.0
18 17.11 штиль 0 10 км ясно +16.2 +12.9 81 +16 +16 1022.4 1022.0 +23.6
00 18.11 штиль 0 10 км ясно +13.4 +11.9 91 +13 +13 1021.9 1022.0
03 18.11 штиль 0 10 км ясно +13.2 +12.1 93 +13 +13 1021.7 1022.0
06 18.11 СЗ 2 10 км 5/0
[Ci fib]
+14.5 +13.2 92 +14 +17 1022.5 1023.0 +12.0
12 18.11 С 8 10 км ясно +23.0 +11.3 48 +25 +26 комфорт 1019.5 1020.0
15 18.11 штиль 0 10 км ясно +18.6 +11.3 62 +19 +19 1019.5 1020.0
18 18.11 штиль 0 10 км ясно +15.2 +10.2 72 +15 +15 1020.3 1020.0 +23.2
21 18.11 штиль 0 10 км ясно +13.0 +9.4 79 +13 +13 1020.1 1020.0
03 19.11 штиль 0 10 км ясно +11.2 +8.7 85 +11 +11 1019.7 1020.0
06 19.11 штиль 0 10 км 6/0
[Cs]
+13.8 +11.1 84 +13 +17 1020.9 1021.0 +10.0
12 19.11 С 4 10 км 9/0
[Cs]
+22.8 +13.4 55 +26 +28 жарко 1019.5 1020.0
15 19.11 штиль 0 10 км 9/0
[Cs]
+18.6 +11.6 64 +19 +19 1019.5 1020.0
18 19.11 штиль 0 10 км 9/0
[Cs]
+16.2 +12.3 78 +16 +16 1020.2 1020.0 +23.2
21 19.11 штиль 0 10 км 8/0
[Cs]
+14.0 +11.3 84 +14 +14 1019.8 1020.0
00 20.11 штиль 0 10 км 8/0
[Cs]
+13.0 +11.4 90 +12 +12 1019.5 1020.0
03 20.11 штиль 0 10 км 6/0
[Cs]
+12.2 +11.2 94 +12 +12 1020.2 1020.0
06 20.11 С 2 10 км ясно +14.6 +12.1 85 +14 +17 1021.3 1021.0 +11.6
09 20.11 С 6 10 км ясно +21.0 +9.9 49 +23 +26 комфорт 1020.5 1021.0
15 20.11 штиль 0 10 км ясно +17.8 +9.3 57 +18 +18 1019.8 1020.0
18 20.11 штиль 0 10 км ясно +13.4 +9.0 75 +13 +13 1019.9 1020.0 +23.0
21 20.11 штиль 0 10 км ясно +12.2 +7.9 75 +12 +12 1019.6 1020.0
00 21.11 штиль 0 10 км ясно +11.4 +9.0 85 +11 +11 1019.3 1019.0
03 21.11 штиль 0 10 км ясно +10.0 +7.9 87 +9 +9 1019.8 1020.0
06 21.11 СЗ 2 10 км 3/0
[Ci fib]
+13.4 +10.7 84 +13 +15 1020.2 1020.0 +9.0
09 21.11 СЗ 2 10 км 3/0
[Ci fib]
+21.6 +12.4 56 +24 +31 комфорт 1019.4 1019.0

 

Местоположение метеостанции Hella (Ирак): широта 32.45 долгота 44.45 высота над уровнем моря 27 м.

В архиве по умолчанию представлена погода в Hella за последнюю неделю. Архивные данные за месяц целиком и за предыдущие месяцы, начиная с января 2011 года, Вы можете получить, выбрав интересующий диапазон дат из раскрывающегося списка и нажав кнопку "Ввод!".


*Определитесь, кто Вы:
робот инопланетянин человек

Внимание! Время в таблицах - всемирное. Для получения местного времени необходимо прибавить поправку, которая в Hella равна 3 ч.

Смотрите также архив погоды в соседних городах и на ближайших метеорологических станциях:

Погода в Karbalaa (Ирак) (45 км)
Погода в Najaf (Ирак) (54 км)
Погода в Diwaniya (Ирак) (72 км)
Погода в Azizyah (Ирак) (78 км)
Погода в Baghdad (Ирак) (89 км)
Погода в Ubaydah Bin Al Jarrah (Ирак) (122 км)
Погода в Ayn Al-Tamar (Ирак) (125 км)
Погода в Heet (Ирак) (147 км)
Погода в Samawah (Ирак) (150 км)
Погода в Ramadi (Ирак) (153 км)

Пояснения к столбцам:

Ветер - указаны скорость ветра в м/с - средняя за 10 мин, порывы в срок и между сроками (в фигурных скобках) и направление, откуда дует ветер: С - северный, СВ - северо-восточный, В - восточный, ЮВ - юго-восточный, Ю - южный, ЮЗ - юго-западный, З - западный, СЗ - северо-западный.
Видимость - горизонтальная дальность видимости в метрах или километрах. При видимости от 1 до 10 км при отсутствии осадков обычно наблюдается дымка, при ухудшении видимости до 1 км и менее - туман. В сухую погоду видимость может ухудшаться дымом, пылью или мглою.
Явления - указаны атмосферные явления, наблюдавшиеся в срок или в последний час перед сроком; фигурными скобками обозначены явления, наблюдавшиеся между сроками (за 1-3 часа до срока); квадратными скобками обозначены град или гололедные отложения с указанием их диаметра в мм.
Облачность - указаны через наклонную черту общая и нижняя облачность в баллах и высота нижней границы облаков в метрах; квадратными скобками обозначены формы облаков: Ci - перистые, Cs - перисто-слоистые, Cc - перисто-кучевые, Ac - высококучевые, As - высокослоистые, Sc - слоисто-кучевые, Ns - слоисто-дождевые, Cu - кучевые, Cb - кучево-дождевые. Подробнее классификацию облаков см. в Атласе облаков (PDF).
T - Температура воздуха - температура, измеренная на высоте 2 м над землей.
Td - Температура точки росы - температура, при понижении до которой содержащийся в воздухе водяной пар достигнет насыщения.
f - Относительная влажность воздуха - влажноcть воздуха, измеренная на высоте 2 м над землей.
Te - Эффективная температура - температура, которую ощущает одетый по сезону человек в тени. Характеристика душности погоды. При расчете учитывается влияние влажности воздуха и скорости ветра на теплоощущения человека.
Tes - Эффективная температура на солнце - температура, которую ощущает человек, с поправкой на солнечный нагрев. Характеристика знойности погоды. Зависит от высоты солнца над горизонтом, облачности и скорости ветра. Ночью, в пасмурную погоду, а также при ветре 12 м/с и более поправка равна нулю.
P - Атмосферное давление - приведенное к уровню моря атмосферное давление.
Po - Атмосферное давление - измеренное на уровне метеостанции атмосферное давление.
Tmin - Минимальная температура - минимум температуры воздуха на высоте 2 м над землей.
Tmax - Максимальная температура - максимум температуры воздуха на высоте 2 м над землей.
R - Количество осадков - Количество выпавших осадков за период времени, мм. При наведении курсора мыши на число - период времени, за который выпало указанное количество осадков.
R24 - Количество осадков - Количество выпавших осадков за 24 часа, мм.
S - Снежный покров - Высота снежного покрова, см. При наведении курсора мыши на число - состояние снежного покрова и степень покрытия местности в баллах.